Simultaneous Nadir Overpasses (SNOs) Predictions

Prediction of SNOs between METOP-A and TERRA Satellite Orbit:

Table of predicted SNOs for the next 14.0 days since TLE Epoch: 2/29/2020
Index Date (METOP-A) Time (METOP-A) Lat,Lon (METOP-A) SZA (METOP-A ) Date (TERRA) Time (TERRA) Lat,Lon (TERRA) SZA (TERRA ) Distance(km) Time Diff (sec)
1 02/29/2020 14:54:34 81.43, 6.00 91.68 02/29/2020 14:55:40 81.43, 6.02 91.71 0.28 66
2 02/29/2020 15:45:14 -81.43, 173.53 88.33 02/29/2020 15:45:07 -81.43, 173.56 88.32 0.56 7
3 03/03/2020 10:28:56 81.43, 72.40 90.62 03/03/2020 10:29:53 81.43, 72.35 90.64 0.87 57
4 03/03/2020 11:19:36 -81.43,-120.05 89.38 03/03/2020 11:19:20 -81.43,-120.07 89.39 0.31 16
5 03/06/2020 06:03:19 81.43, 138.79 89.55 03/06/2020 06:04:05 81.43, 138.89 89.59 1.66 46
6 03/06/2020 06:53:59 -81.43, -53.64 90.44 03/06/2020 06:53:32 -81.43, -53.50 90.44 2.45 27
7 03/09/2020 01:37:42 81.43,-154.83 88.48 03/09/2020 01:38:16 81.43,-154.76 88.50 1.18 34
8 03/09/2020 02:28:22 -81.43, 12.76 91.52 03/09/2020 02:27:43 -81.43, 12.88 91.52 2.04 39
9 03/11/2020 21:12:03 81.42, -88.06 87.43 03/11/2020 21:12:24 81.43, -88.20 87.43 2.63 21




NCC Satellite Simultaneous Nadir Overpasses (SNOs) Prediction Service
